Regional Weather Roundup
Issued by NWS

Home | Current Version | Previous Version | Text Only | Print | Product List | Glossary Off
Versions: 1 2 3 4 5 6 7 8 9 10 11 12 13 14 15 16 17 18 19 20 21 22 23 24 25 26 27 28 29 30 31 32 33 34 35 36 37 38 39 40 41 42 43 44 45 46 47 48 49 50

000
ASUS43 KLMK 170310
RWRKY
KENTUCKY REGIONAL WEATHER ROUNDUP
NATIONAL WEATHER SERVICE LOUISVILLE KY
1100 PM EDT MON OCT 16 2017

NOTE "FAIR" INDICATES FEW OR NO CLOUDS BELOW 12,000 FEET
WITH NO SIGNIFICANT WEATHER AND/OR OBSTRUCTIONS TO VISIBILITY.

KYZ001>023-026-027-061>063-070>075-170400-
WESTERN AND SOUTH CENTRAL KENTUCKY

CITY           SKY/WX    TMP DP  RH WIND       PRES   REMARKS
PADUCAH        CLEAR     43  39  86 CALM      30.33R
HENDERSON      CLEAR     42  40  92 CALM      30.34R
OWENSBORO      CLEAR     48  42  80 CALM      30.33S
HOPKINSVILLE   CLEAR     48  39  73 N5        30.32S HAZE
BOWLING GREEN  CLEAR     47  45  93 CALM      30.32S
GLASGOW        CLEAR     44  44 100 CALM      30.33R
$$

KYZ024-025-028>034-038-045-046-053-170400-
NORTH CENTRAL KENTUCKY

CITY           SKY/WX    TMP DP  RH WIND       PRES   REMARKS
LOUISVILLE/SDF CLEAR     51  44  77 CALM      30.32S
LOUISVILLE/LOU CLEAR     47  44  90 CALM      30.33S
FORT KNOX      CLEAR     44  40  86 CALM      30.31S
$$

KYZ035>037-039>044-047>052-055>060-089>105-170400-
NORTHEAST KENTUCKY

CITY           SKY/WX    TMP DP  RH WIND       PRES   REMARKS
LEXINGTON      CLEAR     47  40  76 CALM      30.33R
COVINGTON      CLEAR     45  42  89 CALM      30.32R
FRANKFORT      CLEAR     44  39  82 CALM      30.32R
$$

KYZ054-064>069-076>088-106>120-170400-
SOUTHEAST KENTUCKY

CITY           SKY/WX    TMP DP  RH WIND       PRES   REMARKS
JACKSON        CLEAR     48  40  73 CALM      30.32R
LONDON         CLEAR     45  42  89 CALM      30.32R
SOMERSET       CLEAR     43  43 100 CALM      30.34S
MIDDLESBORO    CLEAR     44  43  98 CALM      30.34R
MONTICELLO     CLEAR     41  40  96 VRB7      30.35R
$$




USA.gov is the U.S. government's official web portal to all federal, state and local government web resources and services.